TimeEDT,TemperatureF,Dew PointF,Humidity,Sea Level PressureIn,VisibilityMPH,Wind Direction,Wind SpeedMPH,Gust SpeedMPH,PrecipitationIn,Events,Conditions,WindDirDegrees,DateUTC
12:53 AM,26.1,18.0,71,29.96,10.0,West,16.1,26.5,0.00,,Overcast,260,2013-03-22 04:53:00
1:53 AM,26.1,18.0,71,29.96,10.0,West,11.5,20.7,N/A,,Overcast,260,2013-03-22 05:53:00
2:53 AM,26.1,18.0,71,29.96,10.0,West,11.5,23.0,N/A,,Overcast,260,2013-03-22 06:53:00
3:53 AM,25.0,18.0,75,29.96,10.0,West,12.7,19.6,N/A,,Partly Cloudy,260,2013-03-22 07:53:00
4:53 AM,25.0,19.0,78,29.95,10.0,WSW,10.4,-,N/A,,Overcast,240,2013-03-22 08:53:00
5:53 AM,25.0,17.1,72,29.95,10.0,WSW,9.2,-,N/A,,Mostly Cloudy,250,2013-03-22 09:53:00
6:53 AM,25.0,15.1,66,29.97,10.0,WSW,10.4,19.6,N/A,,Overcast,250,2013-03-22 10:53:00
7:37 AM,24.8,15.8,69,29.93,10.0,West,9.2,20.7,N/A,,Scattered Clouds,270,2013-03-22 11:37:00
7:53 AM,24.1,15.1,69,29.99,10.0,West,8.1,-,N/A,,Mostly Cloudy,270,2013-03-22 11:53:00
8:53 AM,24.1,15.1,69,30.01,10.0,West,10.4,-,N/A,,Overcast,270,2013-03-22 12:53:00
9:53 AM,25.0,16.0,69,30.01,10.0,West,9.2,-,N/A,,Overcast,270,2013-03-22 13:53:00
10:06 AM,26.6,15.8,64,29.96,10.0,West,10.4,18.4,N/A,,Overcast,260,2013-03-22 14:06:00
10:16 AM,26.6,15.8,64,29.97,10.0,West,12.7,-,N/A,,Overcast,260,2013-03-22 14:16:00
10:53 AM,27.0,16.0,63,30.02,10.0,West,8.1,-,N/A,,Overcast,260,2013-03-22 14:53:00
11:53 AM,28.0,14.0,56,30.02,10.0,SW,9.2,-,N/A,,Overcast,230,2013-03-22 15:53:00
12:53 PM,30.0,15.1,54,30.02,10.0,West,9.2,-,N/A,,Overcast,280,2013-03-22 16:53:00
1:53 PM,30.0,15.1,54,30.02,10.0,West,12.7,19.6,N/A,,Overcast,270,2013-03-22 17:53:00
2:53 PM,32.0,16.0,52,30.01,10.0,West,11.5,19.6,N/A,,Overcast,260,2013-03-22 18:53:00
3:53 PM,37.0,17.1,44,30.00,10.0,NW,9.2,16.1,N/A,,Mostly Cloudy,320,2013-03-22 19:53:00
4:53 PM,37.9,17.1,43,29.98,10.0,WNW,6.9,19.6,N/A,,Clear,290,2013-03-22 20:53:00
5:53 PM,37.9,16.0,41,29.98,10.0,Variable,5.8,16.1,N/A,,Clear,0,2013-03-22 21:53:00
6:53 PM,37.0,16.0,42,29.99,10.0,West,10.4,-,N/A,,Clear,280,2013-03-22 22:53:00
7:53 PM,35.1,16.0,46,30.00,10.0,WNW,5.8,-,N/A,,Clear,290,2013-03-22 23:53:00
8:53 PM,34.0,16.0,48,30.02,10.0,Calm,Calm,-,N/A,,Clear,0,2013-03-23 00:53:00
9:53 PM,33.1,16.0,50,30.03,10.0,Calm,Calm,-,N/A,,Clear,0,2013-03-23 01:53:00
10:53 PM,30.9,16.0,54,30.04,10.0,Calm,Calm,-,N/A,,Clear,0,2013-03-23 02:53:00
11:53 PM,30.9,18.0,59,30.04,10.0,West,3.5,-,N/A,,Clear,270,2013-03-23 03:53:00